Kearney, NE

9:43 PM CDT on August 16, 2017 (GMT -0500)
Kearney Municipal

Weather History for KEAR - December, 2011

Change the Weather History Date:

Wednesday, December 14, 2011

  Actual Average Record
Temperature  
Mean Temperature 36 °F 26 °F  
Max Temperature 41 °F 37 °F 63 °F (1966)
Min Temperature 30 °F 15 °F -17 °F (1901)
Degree Days  
Heating Degree Days 29 39  
Month to date heating degree days 526  
Cooling Degree Days 0 0  
Month to date cooling degree days 0  
Moisture  
Dew Point 32 °F    
Average Humidity 76    
Maximum Humidity 89    
Minimum Humidity 63    
Precipitation  
Precipitation 0.03 in - 0.60 in (1925)
Sea Level Pressure  
Sea Level Pressure 29.80 in    
Wind  
Wind Speed 7 mph (SW)    
Max Wind Speed 14 mph    
Max Gust Speed 18 mph    
Visibility 5 miles    
Events      
T = Trace of Precipitation, MM = Missing Value Source: NWS Daily Summary

Daily Weather History Graph

Daily Weather History Graph

Search for Another Location

Airport or City:

Trip Planner

Search our weather history database for the weather conditions in past years. The results will help you decide how hot, cold, wet, or windy it might be!

Date:

Astronomy

Dec. 14, 2011 Rise Set
Actual Time 7:52 AM CST 5:09 PM CST
Civil Twilight 7:21 AM CST 5:40 PM CST
Nautical Twilight 6:46 AM CST 6:14 PM CST
Astronomical Twilight 6:13 AM CST 6:47 PM CST
Moon 9:32 PM CST (12/14) 10:36 AM CST (12/14)
Length of Visible Light 10h 18m
Length of Day
9h 17m
Waning Gibbous, 83% of the Moon is Illuminated
Dec 14
Waning Gibbous
Dec 17
Last Quarter
Dec 24
New
Jan 1
First Quarter
Jan 9
Full

Hourly Weather History & Observations

Time (CST) Temp. Windchill Dew Point Humidity Pressure Visibility Wind Dir Wind Speed Gust Speed Precip Events Conditions
12:15 AM 37.4 °F 30.8 °F 32.0 °F 81% 29.93 in 1.2 mi South 9.2 mph - N/A   Overcast
12:35 AM 37.4 °F 30.3 °F 32.0 °F 81% 29.93 in 7.0 mi South 10.4 mph - N/A   Overcast
12:55 AM 37.4 °F 30.8 °F 32.0 °F 81% 29.87 in 8.0 mi SE 9.2 mph - N/A   Overcast
1:15 AM 37.4 °F 30.8 °F 32.0 °F 81% 29.89 in 8.0 mi South 9.2 mph - N/A   Overcast
1:35 AM 37.4 °F 29.8 °F 32.0 °F 81% 29.90 in 7.0 mi South 11.5 mph - N/A   Overcast
1:55 AM 37.4 °F 30.3 °F 33.8 °F 87% 29.90 in 7.0 mi South 10.4 mph - N/A   Overcast
2:15 AM 37.4 °F 31.4 °F 33.8 °F 87% 29.87 in 1.5 mi SSE 8.1 mph - N/A   Overcast
2:35 AM 37.4 °F 30.8 °F 33.8 °F 87% 29.89 in 0.8 mi South 9.2 mph - N/A   Overcast
2:55 AM 37.4 °F 33.8 °F 33.8 °F 87% 29.87 in 0.5 mi SSE 4.6 mph - N/A   Overcast
3:15 AM 37.4 °F 31.4 °F 32.0 °F 81% 29.87 in 0.5 mi South 8.1 mph - N/A   Overcast
3:35 AM 37.4 °F 32.8 °F 32.0 °F 81% 29.87 in 0.5 mi South 5.8 mph - N/A   Overcast
3:55 AM 37.4 °F 33.8 °F 32.0 °F 81% 29.82 in 0.5 mi SE 4.6 mph - N/A   Overcast
4:15 AM 35.6 °F - 30.2 °F 81% 29.83 in 0.2 mi Calm Calm - N/A   Overcast
4:35 AM 35.6 °F 28.6 °F 32.0 °F 87% 29.83 in 0.2 mi South 9.2 mph - N/A   Overcast
4:55 AM 37.4 °F 32.1 °F 32.0 °F 81% 29.82 in 0.5 mi SSE 6.9 mph - N/A   Overcast
5:15 AM 37.4 °F 32.8 °F 32.0 °F 81% 29.81 in 0.5 mi SSE 5.8 mph - N/A   Overcast
5:35 AM 35.6 °F 30.7 °F 32.0 °F 87% 29.81 in 0.5 mi SE 5.8 mph - N/A   Overcast
5:55 AM 35.6 °F 30.7 °F 32.0 °F 87% 29.79 in 0.5 mi SSE 5.8 mph - N/A   Overcast
6:15 AM 37.4 °F 32.1 °F 32.0 °F 81% 29.80 in 0.8 mi SSE 6.9 mph - N/A   Overcast
6:35 AM 37.4 °F 34.9 °F 33.8 °F 87% 29.79 in 1.0 mi SSE 3.5 mph - N/A   Overcast
6:55 AM 37.4 °F 32.1 °F 33.8 °F 87% 29.80 in 0.8 mi SSE 6.9 mph - N/A   Overcast
7:15 AM 37.4 °F 33.8 °F 33.8 °F 87% 29.79 in 0.8 mi SSE 4.6 mph - N/A   Overcast
7:35 AM 37.4 °F 33.8 °F 33.8 °F 87% 29.78 in 0.8 mi SE 4.6 mph - N/A   Overcast
7:55 AM 37.4 °F 33.8 °F 33.8 °F 87% 29.78 in 0.8 mi SSE 4.6 mph - N/A   Overcast
8:15 AM 37.4 °F 31.4 °F 33.8 °F 87% 29.78 in 0.5 mi SSE 8.1 mph - N/A   Overcast
8:35 AM 37.4 °F - 33.8 °F 87% 29.78 in 0.8 mi Calm Calm - 0.02 in   Overcast
8:55 AM 37.4 °F - 33.8 °F 87% 29.78 in 0.5 mi Calm Calm - 0.03 in   Overcast
9:15 AM 37.4 °F 34.9 °F 33.8 °F 87% 29.76 in 0.5 mi SSE 3.5 mph - N/A   Overcast
9:35 AM 37.4 °F 33.8 °F 33.8 °F 87% 29.75 in 0.5 mi SSE 4.6 mph - N/A   Overcast
9:55 AM 37.4 °F 31.4 °F 32.0 °F 81% 29.75 in 1.2 mi NW 8.1 mph - N/A   Overcast
10:15 AM 35.6 °F 29.2 °F 30.2 °F 81% 29.76 in 2.5 mi NW 8.1 mph - N/A   Overcast
10:35 AM 35.6 °F 29.9 °F 30.2 °F 81% 29.76 in 4.0 mi NW 6.9 mph - N/A   Overcast
10:55 AM 35.6 °F 31.7 °F 30.2 °F 81% 29.76 in 7.0 mi NW 4.6 mph - N/A   Overcast
11:15 AM 35.6 °F 30.7 °F 30.2 °F 81% 29.77 in 6.0 mi NW 5.8 mph - N/A   Overcast
11:35 AM 35.6 °F 31.7 °F 30.2 °F 81% 29.76 in 3.0 mi NW 4.6 mph - N/A   Overcast
11:55 AM 35.6 °F 32.8 °F 32.0 °F 87% 29.75 in 6.0 mi NW 3.5 mph - N/A   Overcast
12:15 PM 37.4 °F 30.3 °F 33.8 °F 87% 29.75 in 10.0 mi WNW 10.4 mph - N/A   Overcast
12:35 PM 37.4 °F 31.4 °F 33.8 °F 87% 29.74 in 10.0 mi WNW 8.1 mph - N/A   Overcast
12:55 PM 37.4 °F 31.4 °F 33.8 °F 87% 29.74 in 10.0 mi WNW 8.1 mph - N/A   Overcast
1:15 PM 37.4 °F 32.1 °F 33.8 °F 87% 29.73 in 10.0 mi WNW 6.9 mph - N/A   Overcast
1:35 PM 39.2 °F 34.2 °F 35.6 °F 87% 29.73 in 10.0 mi West 6.9 mph - N/A   Overcast
1:55 PM 41.0 °F 36.4 °F 35.6 °F 81% 29.72 in 10.0 mi West 6.9 mph - N/A   Mostly Cloudy
2:15 PM 41.0 °F 34.3 °F 35.6 °F 81% 29.72 in 10.0 mi WNW 11.5 mph - N/A   Mostly Cloudy
2:35 PM 41.0 °F 34.7 °F 33.8 °F 76% 29.73 in 10.0 mi WNW 10.4 mph - N/A   Partly Cloudy
2:55 PM 41.0 °F 34.7 °F 32.0 °F 70% 29.74 in 10.0 mi WNW 10.4 mph - N/A   Clear
3:15 PM 41.0 °F 33.9 °F 32.0 °F 70% 29.74 in 10.0 mi WNW 12.7 mph - N/A   Clear
3:35 PM 41.0 °F 33.5 °F 30.2 °F 65% 29.75 in 10.0 mi WNW 13.8 mph 18.4 mph N/A   Clear
3:55 PM 41.0 °F 33.5 °F 30.2 °F 65% 29.76 in 10.0 mi WNW 13.8 mph - N/A   Clear
4:15 PM 41.0 °F 35.8 °F 30.2 °F 65% 29.76 in 10.0 mi WNW 8.1 mph - N/A   Clear
4:35 PM 39.2 °F 32.5 °F 30.2 °F 70% 29.77 in 10.0 mi WNW 10.4 mph - N/A   Clear
4:55 PM 39.2 °F 32.0 °F 28.4 °F 65% 29.79 in 10.0 mi WNW 11.5 mph - N/A   Clear
5:15 PM 37.4 °F 32.1 °F 26.6 °F 65% 29.80 in 10.0 mi WNW 6.9 mph - N/A   Clear
5:35 PM 35.6 °F 30.7 °F 26.6 °F 70% 29.82 in 10.0 mi WNW 5.8 mph - N/A   Clear
5:55 PM 35.6 °F 31.7 °F 26.6 °F 70% 29.83 in 10.0 mi West 4.6 mph - N/A   Clear
6:15 PM 35.6 °F 29.9 °F 26.6 °F 70% 29.84 in 10.0 mi WNW 6.9 mph - N/A   Clear
6:35 PM 32.0 °F 24.8 °F 24.8 °F 75% 29.85 in 10.0 mi WNW 8.1 mph - N/A   Clear
6:55 PM 35.6 °F 28.0 °F 28.4 °F 75% 29.86 in 10.0 mi NW 10.4 mph - N/A   Clear
7:15 PM 35.6 °F 29.9 °F 26.6 °F 70% 29.88 in 10.0 mi NW 6.9 mph - N/A   Clear
7:35 PM 33.8 °F 27.7 °F 24.8 °F 70% 29.89 in 10.0 mi WNW 6.9 mph - N/A   Clear
7:55 PM 33.8 °F 27.0 °F 26.6 °F 75% 29.91 in 10.0 mi WNW 8.1 mph - N/A   Clear
8:15 PM 32.0 °F 25.6 °F 24.8 °F 75% 29.92 in 10.0 mi WNW 6.9 mph - N/A   Clear
8:35 PM 33.8 °F 26.4 °F 24.8 °F 70% 29.93 in 10.0 mi WNW 9.2 mph - N/A   Clear
8:55 PM 33.8 °F 26.4 °F 24.8 °F 70% 29.93 in 10.0 mi NW 9.2 mph - N/A   Clear
9:15 PM 32.0 °F 23.6 °F 23.0 °F 69% 29.94 in 10.0 mi WNW 10.4 mph - N/A   Clear
9:35 PM 32.0 °F 23.6 °F 21.2 °F 64% 29.94 in 10.0 mi WNW 10.4 mph - N/A   Clear
9:55 PM 32.0 °F 23.6 °F 21.2 °F 64% 29.95 in 10.0 mi WNW 10.4 mph - N/A   Clear
10:15 PM 32.0 °F 23.0 °F 21.2 °F 64% 29.95 in 10.0 mi WNW 11.5 mph - N/A   Clear
10:35 PM 30.2 °F 22.6 °F 21.2 °F 69% 29.96 in 10.0 mi WNW 8.1 mph - N/A   Clear
10:55 PM 30.2 °F 21.9 °F 21.2 °F 69% 29.96 in 10.0 mi WNW 9.2 mph - N/A   Clear
11:15 PM 30.2 °F 21.9 °F 21.2 °F 69% 29.97 in 10.0 mi WNW 9.2 mph - N/A   Clear
11:35 PM 32.0 °F 24.2 °F 21.2 °F 64% 29.98 in 10.0 mi WNW 9.2 mph - N/A   Clear
11:55 PM 30.2 °F 22.6 °F 21.2 °F 69% 29.99 in 10.0 mi WNW 8.1 mph - N/A   Clear